This demonstration page uses our WeatherBlox Daily Observations layout. Learn more.

Left ArrowRight Arrow

39.29038, -76.61219

Hourly Observations for February 17, 2021

Temp ( °F °C ) Dew Point ( °F °C ) Humidity (%) Winds ( mph kmh ) Pressure ( in mb ) Visibility ( mi km ) Precip ( " mm )
12:54 am 00:54 Clear 28 -2.2 12 -11.1 51 51 NW 12 19 30.19 1022 10 16 N/A
1:54 am 01:54 Clear 27 -2.8 11 -11.7 51 51 NW 10 17 30.20 1023 10 16 N/A
2:54 am 02:54 Mostly Clear 26 -3.3 10 -12.2 51 51 WNW 10 17 30.23 1024 10 16 N/A
3:54 am 03:54 Mostly Clear 25 -3.9 10 -12.2 53 53 NW 7 11 30.26 1025 10 16 N/A
4:54 am 04:54 Partly Cloudy 25 -3.9 11 -11.7 55 55 NW 9 15 30.28 1026 10 16 N/A
5:54 am 05:54 Mostly Cloudy 25 -3.9 10 -12.2 53 53 WNW 10 17 30.34 1027 10 16 N/A
6:54 am 06:54 Mostly Cloudy 24 -4.4 9 -12.8 52 52 NNW 12 19 30.35 1028 10 16 N/A
7:54 am 07:54 Mostly Cloudy 26 -3.3 9 -12.8 48 48 WNW 8 13 30.40 1029 10 16 N/A
8:54 am 08:54 Mostly Cloudy 28 -2.2 9 -12.8 44 44 NW 10 17 30.41 1030 10 16 N/A
9:54 am 09:54 Mostly Cloudy 29 -1.7 9 -12.8 43 43 NNW 8 13 30.42 1030 10 16 N/A
10:54 am 10:54 Mostly Cloudy 32 undefined 9 -12.8 38 38 NNW 9 15 30.43 1031 10 16 N/A
11:54 am 11:54 Mostly Cloudy 31 -0.6 8 -13.3 38 38 VRB 5 7 30.42 1030 10 16 N/A
12:54 pm 12:54 Mostly Cloudy 34 1.1 9 -12.8 35 35 VRB 3 6 30.39 1029 10 16 N/A
1:54 pm 13:54 Mostly Cloudy 34 1.1 8 -13.3 34 34 ESE 5 7 30.40 1029 10 16 N/A
2:54 pm 14:54 Mostly Cloudy 36 2.2 8 -13.3 31 31 VRB 7 11 30.40 1029 10 16 N/A
3:54 pm 15:54 Mostly Cloudy 36 2.2 7 -13.9 30 30 NNE 6 9 30.38 1029 10 16 N/A
4:54 pm 16:54 Mostly Cloudy 33 0.6 9 -12.8 36 36 E 10 17 30.38 1029 10 16 N/A
5:54 pm 17:54 Partly Cloudy 31 -0.6 10 -12.2 42 42 E 8 13 30.41 1030 10 16 N/A
6:54 pm 18:54 Partly Cloudy 30 -1.1 11 -11.7 45 45 E 5 7 30.45 1031 10 16 N/A
7:54 pm 19:54 Partly Cloudy 31 -0.6 11 -11.7 43 43 E 7 11 30.44 1031 10 16 N/A
8:54 pm 20:54 Partly Cloudy 29 -1.7 9 -12.8 43 43 NE 5 7 30.45 1031 10 16 N/A
9:54 pm 21:54 Mostly Cloudy 29 -1.7 9 -12.8 43 43 NE 7 11 30.46 1031 10 16 N/A
10:54 pm 22:54 Partly Cloudy 28 -2.2 10 -12.2 47 47 ENE 7 11 30.43 1031 10 16 N/A
11:54 pm 23:54 Mostly Cloudy 27 -2.8 9 -12.8 46 46 N N/A 30.43 1031 10 16 N/A

Powered by AerisWeather